Location: Most
(50.5133°N, 13.6207°E)
Time: 23:35:31
(UTC+01:00)

ISS - Pass Details

Date: 13 January 2018
Orbit: 402 x 407 km, 51.6° (Epoch: 22 January)

Event Time Altitude Azimuth Distance (km) Brightness Sun altitude
Exits shadow 07:06:27 - 257° (WSW) 1,681 -1.2 -8.5°
Reaches altitude 10° 07:07:49 10° 236° (WSW) 1,464 -1.3 -8.4°
Maximum altitude 07:08:30 11° 224° (SW) 1,433 -1.2 -8.3°
Drops below altitude 10° 07:09:10 10° 212° (SSW) 1,462 -1.1 -8.2°
Sets 07:12:46 0° 171° (S) 2,317 0.5 -7.6°
